• en France
  • Liste des pays
  • À 7 jours
  • Température de l'eau
  • Carte satellitaire
  • Carte météo
  • Widgets météo
  • user-avatar
    Se connecter

    Météo par heure à Kokrek

    Ce jour, 22 Août, Mercredi

    Heure Température Précipitation Vent Pression Humidité
    00:00 +22°C° 0 mm 4 m/s 752 mmHg 74%
    01:00 +22°C° 0 mm 4 m/s 752 mmHg 73%
    02:00 +22°C° 0 mm 3 m/s 752 mmHg 73%
    03:00 +21°C° 0 mm 3 m/s 752 mmHg 76%
    04:00 +21°C° 0 mm 2 m/s 752 mmHg 74%
    05:00 +21°C° 0 mm 2 m/s 752 mmHg 72%
    06:00 +23°C° 0 mm 2 m/s 752 mmHg 70%
    07:00 +25°C° 0 mm 2 m/s 752 mmHg 62%
    08:00 +27°C° 0 mm 2 m/s 752 mmHg 55%
    09:00 +29°C° 0 mm 2 m/s 752 mmHg 47%
    10:00 +31°C° 0 mm 2 m/s 752 mmHg 43%
    11:00 +32°C° 0 mm 2 m/s 751 mmHg 40%
    12:00 +34°C° 0 mm 3 m/s 751 mmHg 37%
    13:00 +34°C° 0,1 mm 3 m/s 751 mmHg 36%
    14:00 +35°C° 0,1 mm 3 m/s 751 mmHg 35%
    15:00 +35°C° 0,1 mm 3 m/s 751 mmHg 34%
    16:00 +34°C° 0 mm 3 m/s 751 mmHg 37%
    17:00 +33°C° 0 mm 3 m/s 751 mmHg 40%
    18:00 +31°C° 0 mm 3 m/s 751 mmHg 42%
    19:00 +29°C° 0 mm 2 m/s 751 mmHg 46%
    20:00 +28°C° 0 mm 2 m/s 752 mmHg 50%
    21:00 +26°C° 0 mm 2 m/s 752 mmHg 53%
    22:00 +25°C° 0 mm 2 m/s 752 mmHg 54%
    23:00 +25°C° 0 mm 2 m/s 752 mmHg 54%

    Demain, 23 Août, Jeudi

    Heure Température Précipitation Vent Pression Humidité
    00:00 +25°C° 0 mm 2 m/s 752 mmHg 54%
    01:00 +24°C° 0 mm 2 m/s 752 mmHg 55%
    02:00 +24°C° 0 mm 2 m/s 752 mmHg 56%
    03:00 +24°C° 0 mm 2 m/s 752 mmHg 57%
    04:00 +24°C° 0 mm 2 m/s 752 mmHg 56%
    05:00 +24°C° 0 mm 2 m/s 752 mmHg 56%
    06:00 +24°C° 0 mm 2 m/s 753 mmHg 55%
    07:00 +27°C° 0 mm 2 m/s 753 mmHg 49%
    08:00 +29°C° 0 mm 2 m/s 753 mmHg 42%
    09:00 +32°C° 0 mm 2 m/s 753 mmHg 36%
    10:00 +34°C° 0 mm 3 m/s 753 mmHg 33%
    11:00 +35°C° 0 mm 3 m/s 753 mmHg 30%
    12:00 +36°C° 0 mm 3 m/s 753 mmHg 27%
    13:00 +36°C° 0 mm 3 m/s 753 mmHg 27%
    14:00 +36°C° 0 mm 3 m/s 753 mmHg 27%
    15:00 +36°C° 0 mm 4 m/s 753 mmHg 27%
    16:00 +34°C° 0 mm 4 m/s 753 mmHg 32%
    17:00 +33°C° 0 mm 4 m/s 753 mmHg 37%
    18:00 +30°C° 0 mm 4 m/s 753 mmHg 42%
    19:00 +29°C° 0 mm 4 m/s 754 mmHg 49%
    20:00 +27°C° 0 mm 3 m/s 754 mmHg 56%
    21:00 +25°C° 0 mm 3 m/s 754 mmHg 63%
    22:00 +25°C° 0 mm 3 m/s 755 mmHg 66%
    23:00 +24°C° 0 mm 3 m/s 755 mmHg 69%

    Après-demain, 24 Août, Vendredi

    Heure Température Précipitation Vent Pression Humidité
    00:00 +24°C° 0 mm 3 m/s 755 mmHg 72%
    01:00 +24°C° 0 mm 3 m/s 755 mmHg 73%
    02:00 +24°C° 0 mm 3 m/s 754 mmHg 74%
    03:00 +23°C° 0 mm 4 m/s 754 mmHg 75%
    04:00 +23°C° 0 mm 4 m/s 754 mmHg 73%
    05:00 +23°C° 0 mm 4 m/s 754 mmHg 71%
    06:00 +23°C° 0 mm 4 m/s 754 mmHg 69%
    07:00 +26°C° 0 mm 5 m/s 754 mmHg 62%
    08:00 +28°C° 0 mm 5 m/s 754 mmHg 54%
    09:00 +30°C° 0 mm 6 m/s 754 mmHg 47%
    10:00 +30°C° 0 mm 7 m/s 754 mmHg 45%
    11:00 +32°C° 0 mm 7 m/s 754 mmHg 43%
    12:00 +33°C° 0 mm 7 m/s 754 mmHg 41%
    13:00 +32°C° 0 mm 7 m/s 753 mmHg 42%
    14:00 +32°C° 0 mm 8 m/s 753 mmHg 43%
    15:00 +32°C° 0 mm 8 m/s 753 mmHg 44%
    16:00 +30°C° 0 mm 7 m/s 753 mmHg 48%
    17:00 +28°C° 0 mm 7 m/s 753 mmHg 51%
    18:00 +27°C° 0 mm 6 m/s 753 mmHg 55%
    19:00 +26°C° 0 mm 5 m/s 753 mmHg 58%
    20:00 +25°C° 0 mm 5 m/s 753 mmHg 62%
    21:00 +23°C° 0 mm 4 m/s 754 mmHg 65%
    22:00 +22°C° 0 mm 4 m/s 753 mmHg 65%
    23:00 +22°C° 0 mm 4 m/s 753 mmHg 66%

    25 Août, Samedi

    Heure Température Précipitation Vent Pression Humidité
    00:00 +22°C° 0 mm 3 m/s 753 mmHg 66%
    01:00 +22°C° 0 mm 3 m/s 753 mmHg 66%
    02:00 +22°C° 0 mm 3 m/s 752 mmHg 66%
    03:00 +21°C° 0 mm 3 m/s 752 mmHg 66%
    04:00 +22°C° 0 mm 3 m/s 752 mmHg 66%
    05:00 +22°C° 0 mm 3 m/s 752 mmHg 65%
    06:00 +22°C° 0 mm 3 m/s 752 mmHg 64%
    07:00 +25°C° 0 mm 3 m/s 752 mmHg 55%
    08:00 +28°C° 0 mm 4 m/s 752 mmHg 47%
    09:00 +30°C° 0 mm 5 m/s 752 mmHg 38%
    10:00 +32°C° 0 mm 5 m/s 751 mmHg 36%
    11:00 +33°C° 0 mm 6 m/s 751 mmHg 34%
    12:00 +34°C° 0 mm 6 m/s 751 mmHg 31%
    13:00 +34°C° 0 mm 6 m/s 751 mmHg 32%
    14:00 +34°C° 0 mm 6 m/s 750 mmHg 33%
    15:00 +34°C° 0 mm 7 m/s 750 mmHg 34%
    16:00 +32°C° 0 mm 6 m/s 750 mmHg 38%
    17:00 +30°C° 0 mm 6 m/s 750 mmHg 42%
    18:00 +28°C° 0 mm 5 m/s 750 mmHg 46%
    19:00 +27°C° 0 mm 5 m/s 751 mmHg 52%
    20:00 +26°C° 0 mm 4 m/s 751 mmHg 57%
    21:00 +25°C° 0 mm 4 m/s 751 mmHg 62%
    22:00 +24°C° 0 mm 3 m/s 751 mmHg 64%
    23:00 +24°C° 0 mm 3 m/s 751 mmHg 66%

    26 Août, Dimanche

    Heure Température Précipitation Vent Pression Humidité
    00:00 +24°C° 0 mm 3 m/s 750 mmHg 67%
    01:00 +22°C° 0 mm 3 m/s 750 mmHg 68%
    02:00 +22°C° 0 mm 3 m/s 750 mmHg 70%
    03:00 +23°C° 0 mm 2 m/s 750 mmHg 71%
    04:00 +23°C° 0 mm 2 m/s 750 mmHg 70%
    05:00 +23°C° 0 mm 2 m/s 750 mmHg 69%
    06:00 +23°C° 0 mm 2 m/s 750 mmHg 68%
    07:00 +26°C° 0 mm 2 m/s 750 mmHg 57%
    08:00 +28°C° 0 mm 3 m/s 750 mmHg 46%
    09:00 +31°C° 0 mm 3 m/s 750 mmHg 35%
    10:00 +33°C° 0 mm 4 m/s 750 mmHg 32%
    11:00 +34°C° 0 mm 5 m/s 749 mmHg 29%
    12:00 +35°C° 0 mm 6 m/s 749 mmHg 26%
    13:00 +35°C° 0 mm 6 m/s 749 mmHg 27%
    14:00 +35°C° 0 mm 6 m/s 749 mmHg 28%
    15:00 +34°C° 0 mm 7 m/s 748 mmHg 28%
    16:00 +33°C° 0 mm 6 m/s 748 mmHg 33%
    17:00 +30°C° 0 mm 6 m/s 749 mmHg 37%
    18:00 +29°C° 0 mm 5 m/s 749 mmHg 41%
    19:00 +28°C° 0 mm 5 m/s 749 mmHg 48%
    20:00 +26°C° 0 mm 4 m/s 749 mmHg 55%
    21:00 +25°C° 0 mm 4 m/s 749 mmHg 62%
    22:00 +23°C° 0,1 mm 4 m/s 749 mmHg 64%
    23:00 +24°C° 0,1 mm 3 m/s 749 mmHg 67%

    27 Août, Lundi

    Heure Température Précipitation Vent Pression Humidité
    00:00 +24°C° 0,1 mm 3 m/s 749 mmHg 69%
    01:00 +24°C° 0,1 mm 3 m/s 749 mmHg 70%
    02:00 +22°C° 0,1 mm 3 m/s 749 mmHg 71%
    03:00 +23°C° 0,1 mm 2 m/s 749 mmHg 73%
    04:00 +23°C° 0 mm 2 m/s 749 mmHg 72%
    05:00 +23°C° 0 mm 2 m/s 749 mmHg 71%
    06:00 +23°C° 0 mm 2 m/s 749 mmHg 70%
    07:00 +26°C° 0 mm 2 m/s 749 mmHg 60%
    08:00 +28°C° 0 mm 3 m/s 749 mmHg 50%
    09:00 +31°C° 0 mm 3 m/s 749 mmHg 40%
    10:00 +33°C° 0 mm 4 m/s 749 mmHg 37%
    11:00 +34°C° 0 mm 4 m/s 749 mmHg 34%
    12:00 +35°C° 0 mm 4 m/s 749 mmHg 30%
    13:00 +35°C° 0 mm 5 m/s 749 mmHg 31%
    14:00 +35°C° 0 mm 5 m/s 749 mmHg 32%
    15:00 +34°C° 0 mm 6 m/s 749 mmHg 32%
    16:00 +33°C° 0 mm 5 m/s 749 mmHg 38%
    17:00 +30°C° 0 mm 5 m/s 749 mmHg 43%
    18:00 +29°C° 0 mm 4 m/s 750 mmHg 49%
    19:00 +27°C° 0 mm 4 m/s 750 mmHg 55%
    20:00 +25°C° 0 mm 3 m/s 750 mmHg 62%
    21:00 +24°C° 0 mm 2 m/s 751 mmHg 69%
    22:00 +23°C° 0 mm 2 m/s 751 mmHg 71%
    23:00 +23°C° 0 mm 2 m/s 751 mmHg 73%
    Voir plus